Verona, Italy

4:51 AM CEST on June 23, 2017 (GMT +0200)
Villafranca Mil

Weather History for LIPX - February, 2014

Change the Weather History Date:

Monday, February 3, 2014

  Actual Average Record
Temperature  
Mean Temperature 48 °F -  
Max Temperature 49 °F 48 °F 55 °F (2006)
Min Temperature 46 °F 33 °F 17 °F (2012)
Degree Days  
Heating Degree Days 18    
Moisture  
Dew Point 44 °F    
Average Humidity 85    
Maximum Humidity 93    
Minimum Humidity 74    
Precipitation  
Precipitation 0.20 in 0.06 in - ()
Sea Level Pressure  
Sea Level Pressure 29.92 in    
Wind  
Wind Speed 12 mph ()    
Max Wind Speed 22 mph    
Max Gust Speed 29 mph    
Visibility 4.8 miles    
Events Rain    
Averages and records for this station are not official NWS values.
T = Trace of Precipitation, MM = Missing Value Source: Averaged Metar Reports

Daily Weather History Graph

Daily Weather History Graph

Search for Another Location

Airport or City:

Trip Planner

Search our weather history database for the weather conditions in past years. The results will help you decide how hot, cold, wet, or windy it might be!

Date:

Astronomy

Feb. 03, 2014 Rise Set
Actual Time 7:35 AM CET 5:26 PM CET
Civil Twilight 7:03 AM CET 5:57 PM CET
Nautical Twilight 6:28 AM CET 6:32 PM CET
Astronomical Twilight 5:53 AM CET 7:07 PM CET
Moon 9:13 AM CET (2/3) 10:13 PM CET (2/3)
Length of Visible Light 10h 53m
Length of Day
9h 50m
Waxing Crescent, 17% of the Moon is Illuminated
Feb 3
Waxing Crescent
Feb 6
First Quarter
Feb 15
Full
Feb 22
Last Quarter
Mar 1
New

Hourly Weather History & Observations

Time (CET) Temp. Windchill Dew Point Humidity Pressure Visibility Wind Dir Wind Speed Gust Speed Precip Events Conditions
12:15 AM 46.4 °F - 44.6 °F 93% 29.86 in 3.1 mi NNE 2.3 mph - N/A Rain Light Rain
12:45 AM 46.4 °F 41.9 °F 42.8 °F 87% 29.86 in 3.7 mi NE 9.2 mph - N/A Rain Light Rain
1:00 AM 47 °F - 43 °F 80% 29.87 in 4 mi NE 9.2 mph - - Rain Light Rain
1:15 AM 48.2 °F - 42.8 °F 82% 29.86 in 4.3 mi ENE 10.4 mph - N/A Rain Light Rain
1:45 AM 48.2 °F - 42.8 °F 82% 29.86 in 4.3 mi ENE 9.2 mph - N/A Rain Light Rain
2:15 AM 48.2 °F - 42.8 °F 82% 29.86 in 5.0 mi ENE 20.7 mph - N/A Rain Light Rain
2:45 AM 48.2 °F - 42.8 °F 82% 29.86 in 5.0 mi ENE 21.9 mph - N/A Rain Light Rain
3:15 AM 48.2 °F - 42.8 °F 82% 29.86 in 4.3 mi ENE 19.6 mph - N/A Rain Light Rain
4:00 AM 49 °F - 43 °F 74% 29.88 in 4 mi ENE 17.3 mph - - Rain Light Rain
4:45 AM 48.2 °F - 42.8 °F 82% 29.86 in 4.3 mi ENE 13.8 mph - N/A Rain Light Rain
5:15 AM 48.2 °F - 42.8 °F 82% 29.89 in 4.3 mi ENE 16.1 mph - N/A Rain Light Rain
5:45 AM 48.2 °F - 42.8 °F 82% 29.89 in 4.3 mi ENE 16.1 mph - N/A Rain Light Rain
6:15 AM 48.2 °F - 42.8 °F 82% 29.89 in 4.3 mi ENE 19.6 mph - N/A Rain Light Rain
6:45 AM 48.2 °F - 42.8 °F 82% 29.89 in 3.7 mi ENE 18.4 mph - N/A Rain Light Rain
7:00 AM 48 °F - 43 °F 75% 29.91 in 4 mi ENE 18.4 mph - - Rain Light Rain
7:15 AM 48.2 °F - 42.8 °F 82% 29.86 in 3.7 mi ENE 19.6 mph - N/A Rain Light Rain
7:45 AM 46.4 °F 39.8 °F 42.8 °F 87% 29.89 in 3.1 mi ENE 16.1 mph - N/A Rain Light Rain
8:15 AM 46.4 °F 39.2 °F 42.8 °F 87% 29.89 in 3.1 mi ENE 18.4 mph - N/A Rain Light Rain
8:45 AM 46.4 °F 39.0 °F 42.8 °F 87% 29.92 in 3.1 mi ENE 19.6 mph - N/A Rain Light Rain
9:15 AM 46.4 °F 39.2 °F 42.8 °F 87% 29.92 in 3.7 mi ENE 18.4 mph - N/A Rain Light Rain
9:45 AM 46.4 °F 39.5 °F 42.8 °F 87% 29.92 in 5.0 mi ENE 17.3 mph - N/A Rain Light Rain
10:00 AM 47 °F - 42 °F 78% 29.95 in 5 mi ENE 17.3 mph - - Rain Light Rain
10:15 AM 48.2 °F - 44.6 °F 87% 29.95 in 5.0 mi ENE 18.4 mph - N/A Rain Light Rain
10:45 AM 48.2 °F - 44.6 °F 87% 29.95 in 5.0 mi ENE 18.4 mph - N/A Rain Light Rain
11:15 AM 48.2 °F - 44.6 °F 87% 29.95 in 5.0 mi ENE 17.3 mph 28.8 mph N/A Rain Light Rain
11:45 AM 48.2 °F - 44.6 °F 87% 29.95 in 5.0 mi ENE 17.3 mph - N/A Rain Light Rain
12:15 PM 48.2 °F - 44.6 °F 87% 29.95 in 4.3 mi ENE 16.1 mph - N/A Rain Light Rain
12:45 PM 48.2 °F - 44.6 °F 87% 29.95 in 4.3 mi ENE 13.8 mph - N/A Rain Light Rain
1:00 PM 49 °F - 44 °F 78% 29.96 in 4 mi ENE 13.8 mph - - Rain Light Rain
1:15 PM 48.2 °F - 44.6 °F 87% 29.95 in 4.3 mi ENE 12.7 mph - N/A Rain Light Rain
1:45 PM 48.2 °F - 44.6 °F 87% 29.95 in 4.3 mi ENE 15.0 mph - N/A Rain Light Rain
2:15 PM 48.2 °F - 44.6 °F 87% 29.95 in 5.0 mi ENE 15.0 mph - N/A Rain Light Rain
2:45 PM 48.2 °F - 44.6 °F 87% 29.92 in 5.0 mi ENE 15.0 mph - N/A Rain Light Rain
3:15 PM 48.2 °F - 44.6 °F 87% 29.92 in 6.2 mi East 12.7 mph - N/A Rain Light Rain
3:45 PM 48.2 °F - 44.6 °F 87% 29.92 in 6.2 mi East 10.4 mph - N/A Rain Light Rain
4:00 PM 49 °F - 44 °F 77% 29.95 in 6 mi East 10.4 mph - - Rain Light Rain
4:15 PM 48.2 °F - 44.6 °F 87% 29.92 in 6.2 mi East 8.1 mph - N/A Rain Light Rain
4:45 PM 48.2 °F - 42.8 °F 82% 29.92 in 6.2 mi East 9.2 mph - N/A   Overcast
5:15 PM 48.2 °F - 42.8 °F 82% 29.92 in 6.2 mi East 10.4 mph - N/A   Overcast
5:45 PM 48.2 °F - 44.6 °F 87% 29.95 in 6.2 mi East 10.4 mph - N/A Rain Light Rain
6:15 PM 48.2 °F - 44.6 °F 87% 29.95 in 6.2 mi East 10.4 mph - N/A Rain Light Rain
6:45 PM 48.2 °F - 44.6 °F 87% 29.95 in 6.2 mi East 10.4 mph - N/A Rain Light Rain
7:00 PM 49 °F - 45 °F 79% 29.96 in 6 mi East 10.4 mph - - Rain Light Rain
7:15 PM 48.2 °F - 44.6 °F 87% 29.95 in 6.2 mi East 11.5 mph - N/A Rain Light Rain
7:45 PM 48.2 °F - 44.6 °F 87% 29.95 in 6.2 mi East 10.4 mph - N/A Rain Light Rain
8:15 PM 48.2 °F - 44.6 °F 87% 29.95 in 6.2 mi East 11.5 mph - N/A Rain Light Rain
8:45 PM 48.2 °F - 44.6 °F 87% 29.95 in 6.2 mi East 11.5 mph - N/A Rain Light Rain
9:15 PM 48.2 °F - 44.6 °F 87% 29.98 in 6.2 mi East 11.5 mph - N/A Rain Light Rain
9:45 PM 46.4 °F 40.4 °F 44.6 °F 93% 29.98 in 6.2 mi East 13.8 mph - N/A Rain Light Rain
10:00 PM 47 °F - 44 °F 86% 29.99 in 6 mi East 13.8 mph - - Rain Light Rain
10:15 PM 46.4 °F 41.1 °F 44.6 °F 93% 29.98 in 4.3 mi East 11.5 mph - N/A Rain Light Rain
10:45 PM 46.4 °F 42.4 °F 44.6 °F 93% 29.98 in 3.7 mi ENE 8.1 mph - N/A Rain Light Rain
11:15 PM 46.4 °F - 44.6 °F 93% 29.98 in 3.7 mi ENE 2.3 mph - N/A Rain Light Rain
11:45 PM 46.4 °F 45.2 °F 44.6 °F 93% 29.98 in 1.9 mi East 3.5 mph - N/A Rain Light Rain